owner,sensor,date,latitude,longitude,vertical_datum,wind_speed,wind_to_direction,wind_speed_of_gust,qcFlag 
DISL,ioos:station:DISL:KATA:1,2011-04-15T18:30:00Z,30.2583,-88.2131,0.0,12.16,154.4,-9999.0,'1111122,1111122,1111122' 
DISL,ioos:station:DISL:KATA:1,2011-04-15T19:00:00Z,30.2583,-88.2131,0.0,12.84,152.5,-9999.0,'1111122,1111122,1111122' 
DISL,ioos:station:DISL:KATA:1,2011-04-15T19:30:00Z,30.2583,-88.2131,0.0,12.81,152.4,-9999.0,'1111122,1111122,1111122' 
DISL,ioos:station:DISL:KATA:1,2011-04-15T20:00:00Z,30.2583,-88.2131,0.0,13.12,153.1,-9999.0,'1111122,1111122,1111122' 
DISL,ioos:station:DISL:KATA:1,2011-04-15T20:30:00Z,30.2583,-88.2131,0.0,13.01,155.8,-9999.0,'1111122,1111122,1111122' 
DISL,ioos:station:DISL:KATA:1,2011-04-15T21:00:00Z,30.2583,-88.2131,0.0,12.6,156.9,-9999.0,'1111122,1111122,1111122' 
DISL,ioos:station:DISL:KATA:1,2011-04-15T21:30:00Z,30.2583,-88.2131,0.0,12.48,158.1,-9999.0,'1111122,1111122,1111122' 
DISL,ioos:station:DISL:KATA:1,2011-04-15T22:00:00Z,30.2583,-88.2131,0.0,12.95,158.7,-9999.0,'1111122,1111122,1111122' 
DISL,ioos:station:DISL:KATA:1,2011-04-15T22:30:00Z,30.2583,-88.2131,0.0,12.03,165.0,-9999.0,'1111122,1111122,1111122' 
DISL,ioos:station:DISL:KATA:1,2011-04-15T23:00:00Z,30.2583,-88.2131,0.0,10.9,173.8,-9999.0,'1111122,1111122,1111122' 
DISL,ioos:station:DISL:KATA:1,2011-04-15T23:30:00Z,30.2583,-88.2131,0.0,9.93,179.2,-9999.0,'1111122,1111122,1111122' 
DISL,ioos:station:DISL:KATA:1,2011-04-16T00:00:00Z,30.2583,-88.2131,0.0,10.21,179.7,-9999.0,'1111122,1111122,1111122' 
DISL,ioos:station:DISL:KATA:1,2011-04-16T00:30:00Z,30.2583,-88.2131,0.0,10.08,181.8,-9999.0,'1111122,1111122,1111122' 
DISL,ioos:station:DISL:KATA:1,2011-04-16T01:00:00Z,30.2583,-88.2131,0.0,10.96,180.5,-9999.0,'1111122,1111122,1111122' 
DISL,ioos:station:DISL:KATA:1,2011-04-16T01:30:00Z,30.2583,-88.2131,0.0,10.83,185.3,-9999.0,'1111122,1111122,1111122' 
DISL,ioos:station:DISL:KATA:1,2011-04-16T02:00:00Z,30.2583,-88.2131,0.0,10.82,185.1,-9999.0,'1111122,1111122,1111122' 
DISL,ioos:station:DISL:KATA:1,2011-04-16T02:30:00Z,30.2583,-88.2131,0.0,11.82,186.3,-9999.0,'1111122,1111122,1111122' 
DISL,ioos:station:DISL:KATA:1,2011-04-16T03:00:00Z,30.2583,-88.2131,0.0,11.73,192.2,-9999.0,'1111122,1111122,1111122' 
DISL,ioos:station:DISL:KATA:1,2011-04-16T03:30:00Z,30.2583,-88.2131,0.0,12.72,194.9,-9999.0,'1111122,1111122,1111122' 
DISL,ioos:station:DISL:KATA:1,2011-04-16T04:00:00Z,30.2583,-88.2131,0.0,13.33,205.2,-9999.0,'1111122,1111122,1111122' 
DISL,ioos:station:DISL:KATA:1,2011-04-16T04:30:00Z,30.2583,-88.2131,0.0,12.58,209.7,-9999.0,'1111122,1111122,1111122' 
DISL,ioos:station:DISL:KATA:1,2011-04-16T05:00:00Z,30.2583,-88.2131,0.0,12.27,214.1,-9999.0,'1111122,1111122,1111122' 
DISL,ioos:station:DISL:KATA:1,2011-04-16T05:30:00Z,30.2583,-88.2131,0.0,12.44,215.3,-9999.0,'1111122,1111122,1111122' 
DISL,ioos:station:DISL:KATA:1,2011-04-16T06:00:00Z,30.2583,-88.2131,0.0,11.22,242.7,-9999.0,'1111122,1111122,1111122' 
DISL,ioos:station:DISL:KATA:1,2011-04-16T06:30:00Z,30.2583,-88.2131,0.0,10.22,270.6,-9999.0,'1111122,1111122,1111122' 
DISL,ioos:station:DISL:KATA:1,2011-04-16T07:00:00Z,30.2583,-88.2131,0.0,10.95,281.7,-9999.0,'1111122,1111122,1111122' 
DISL,ioos:station:DISL:KATA:1,2011-04-16T07:30:00Z,30.2583,-88.2131,0.0,13.92,285.1,-9999.0,'1111122,1111122,1111122' 
DISL,ioos:station:DISL:KATA:1,2011-04-16T08:00:00Z,30.2583,-88.2131,0.0,12.03,292.8,-9999.0,'1111122,1111122,1111122' 
DISL,ioos:station:DISL:KATA:1,2011-04-16T08:30:00Z,30.2583,-88.2131,0.0,10.19,287.5,-9999.0,'1111122,1111122,1111122' 
DISL,ioos:station:DISL:KATA:1,2011-04-16T09:00:00Z,30.2583,-88.2131,0.0,9.17,295.0,-9999.0,'1111122,1111122,1111122' 
DISL,ioos:station:DISL:KATA:1,2011-04-16T09:30:00Z,30.2583,-88.2131,0.0,7.73,298.4,-9999.0,'1111122,1111122,1111122' 
DISL,ioos:station:DISL:KATA:1,2011-04-16T10:00:00Z,30.2583,-88.2131,0.0,8.46,283.0,-9999.0,'1111122,1111122,1111122' 
DISL,ioos:station:DISL:KATA:1,2011-04-16T10:30:00Z,30.2583,-88.2131,0.0,9.13,278.1,-9999.0,'1111122,1111122,1111122' 
DISL,ioos:station:DISL:KATA:1,2011-04-16T11:00:00Z,30.2583,-88.2131,0.0,10.32,283.7,-9999.0,'1111122,1111122,1111122' 
DISL,ioos:station:DISL:KATA:1,2011-04-16T11:30:00Z,30.2583,-88.2131,0.0,8.98,277.7,-9999.0,'1111122,1111122,1111122' 
DISL,ioos:station:DISL:KATA:1,2011-04-16T12:00:00Z,30.2583,-88.2131,0.0,10.56,273.7,-9999.0,'1111122,1111122,1111122' 
DISL,ioos:station:DISL:KATA:1,2011-04-16T12:30:00Z,30.2583,-88.2131,0.0,12.0,270.9,-9999.0,'1111122,1111122,1111122' 
DISL,ioos:station:DISL:KATA:1,2011-04-16T13:00:00Z,30.2583,-88.2131,0.0,14.62,267.1,-9999.0,'1111122,1111122,1111122' 
DISL,ioos:station:DISL:KATA:1,2011-04-16T13:30:00Z,30.2583,-88.2131,0.0,12.18,272.1,-9999.0,'1111122,1111122,1111122' 
DISL,ioos:station:DISL:KATA:1,2011-04-16T14:00:00Z,30.2583,-88.2131,0.0,13.29,258.3,-9999.0,'1111122,1111122,1111122' 
DISL,ioos:station:DISL:KATA:1,2011-04-16T14:30:00Z,30.2583,-88.2131,0.0,14.53,263.6,-9999.0,'1111122,1111122,1111122' 
DISL,ioos:station:DISL:KATA:1,2011-04-16T15:00:00Z,30.2583,-88.2131,0.0,11.38,265.0,-9999.0,'1111122,1111122,1111122' 
DISL,ioos:station:DISL:KATA:1,2011-04-16T15:30:00Z,30.2583,-88.2131,0.0,10.69,266.3,-9999.0,'1111122,1111122,1111122' 
DISL,ioos:station:DISL:KATA:1,2011-04-16T16:00:00Z,30.2583,-88.2131,0.0,9.49,265.0,-9999.0,'1111122,1111122,1111122' 
DISL,ioos:station:DISL:KATA:1,2011-04-16T16:30:00Z,30.2583,-88.2131,0.0,9.83,257.8,-9999.0,'1111122,1111122,1111122' 
DISL,ioos:station:DISL:KATA:1,2011-04-16T17:00:00Z,30.2583,-88.2131,0.0,10.43,256.2,-9999.0,'1111122,1111122,1111122' 
DISL,ioos:station:DISL:KATA:1,2011-04-16T17:30:00Z,30.2583,-88.2131,0.0,9.66,255.6,-9999.0,'1111122,1111122,1111122' 
DISL,ioos:station:DISL:KATA:1,2011-04-16T18:00:00Z,30.2583,-88.2131,0.0,9.36,248.6,-9999.0,'1111122,1111122,1111122' 
DISL,ioos:station:DISL:KATA:1,2011-04-16T18:30:00Z,30.2583,-88.2131,0.0,8.84,246.0,-9999.0,'1111122,1111122,1111122' 
DISL,ioos:station:DISL:KATA:1,2011-04-16T19:00:00Z,30.2583,-88.2131,0.0,8.7,245.6,-9999.0,'1111122,1111122,1111122' 
DISL,ioos:station:DISL:KATA:1,2011-04-16T19:30:00Z,30.2583,-88.2131,0.0,8.25,241.2,-9999.0,'1111122,1111122,1111122' 
DISL,ioos:station:DISL:KATA:1,2011-04-16T20:00:00Z,30.2583,-88.2131,0.0,9.14,239.6,-9999.0,'1111122,1111122,1111122' 
DISL,ioos:station:DISL:KATA:1,2011-04-16T20:30:00Z,30.2583,-88.2131,0.0,9.45,245.2,-9999.0,'1111122,1111122,1111122' 
DISL,ioos:station:DISL:KATA:1,2011-04-16T21:00:00Z,30.2583,-88.2131,0.0,9.37,240.3,-9999.0,'1111122,1111122,1111122' 
DISL,ioos:station:DISL:KATA:1,2011-04-16T21:30:00Z,30.2583,-88.2131,0.0,9.21,242.3,-9999.0,'1111122,1111122,1111122' 
DISL,ioos:station:DISL:KATA:1,2011-04-16T22:00:00Z,30.2583,-88.2131,0.0,8.37,245.7,-9999.0,'1111122,1111122,1111122' 
DISL,ioos:station:DISL:KATA:1,2011-04-16T22:30:00Z,30.2583,-88.2131,0.0,8.09,250.1,-9999.0,'1111122,1111122,1111122' 
DISL,ioos:station:DISL:KATA:1,2011-04-16T23:00:00Z,30.2583,-88.2131,0.0,6.94,289.7,-9999.0,'1111122,1111122,1111122' 
DISL,ioos:station:DISL:KATA:1,2011-04-16T23:30:00Z,30.2583,-88.2131,0.0,6.85,301.8,-9999.0,'1111122,1111122,1111122' 
DISL,ioos:station:DISL:KATA:1,2011-04-17T00:00:00Z,30.2583,-88.2131,0.0,7.29,306.8,-9999.0,'1111122,1111122,1111122' 
DISL,ioos:station:DISL:KATA:1,2011-04-17T00:30:00Z,30.2583,-88.2131,0.0,7.23,314.9,-9999.0,'1111122,1111122,1111122' 
DISL,ioos:station:DISL:KATA:1,2011-04-17T01:00:00Z,30.2583,-88.2131,0.0,7.05,319.6,-9999.0,'1111122,1111122,1111122' 
DISL,ioos:station:DISL:KATA:1,2011-04-17T01:30:00Z,30.2583,-88.2131,0.0,6.47,319.6,-9999.0,'1111122,1111122,1111122' 
DISL,ioos:station:DISL:KATA:1,2011-04-17T02:00:00Z,30.2583,-88.2131,0.0,6.87,316.0,-9999.0,'1111122,1111122,1111122' 
DISL,ioos:station:DISL:KATA:1,2011-04-17T02:30:00Z,30.2583,-88.2131,0.0,6.7,326.8,-9999.0,'1111122,1111122,1111122' 
DISL,ioos:station:DISL:KATA:1,2011-04-17T03:00:00Z,30.2583,-88.2131,0.0,7.39,329.1,-9999.0,'1111122,1111122,1111122' 
DISL,ioos:station:DISL:KATA:1,2011-04-17T03:30:00Z,30.2583,-88.2131,0.0,8.48,331.1,-9999.0,'1111122,1111122,1111122' 
DISL,ioos:station:DISL:KATA:1,2011-04-17T04:00:00Z,30.2583,-88.2131,0.0,8.91,331.0,-9999.0,'1111122,1111122,1111122' 
DISL,ioos:station:DISL:KATA:1,2011-04-17T04:30:00Z,30.2583,-88.2131,0.0,9.39,336.2,-9999.0,'1111122,1111122,1111122' 
DISL,ioos:station:DISL:KATA:1,2011-04-17T05:00:00Z,30.2583,-88.2131,0.0,9.11,344.7,-9999.0,'1111122,1111122,1111122' 
DISL,ioos:station:DISL:KATA:1,2011-04-17T05:30:00Z,30.2583,-88.2131,0.0,9.25,351.2,-9999.0,'1111122,1111122,1111122' 
DISL,ioos:station:DISL:KATA:1,2011-04-17T06:00:00Z,30.2583,-88.2131,0.0,9.21,358.0,-9999.0,'1111122,1111122,1111122' 
DISL,ioos:station:DISL:KATA:1,2011-04-17T06:30:00Z,30.2583,-88.2131,0.0,8.52,2.718,-9999.0,'1111122,1111122,1111122' 
DISL,ioos:station:DISL:KATA:1,2011-04-17T07:00:00Z,30.2583,-88.2131,0.0,7.97,2.764,-9999.0,'1111122,1111122,1111122' 
DISL,ioos:station:DISL:KATA:1,2011-04-17T07:30:00Z,30.2583,-88.2131,0.0,7.57,2.926,-9999.0,'1111122,1111122,1111122' 
DISL,ioos:station:DISL:KATA:1,2011-04-17T08:00:00Z,30.2583,-88.2131,0.0,6.98,4.306,-9999.0,'1111122,1111122,1111122' 
DISL,ioos:station:DISL:KATA:1,2011-04-17T08:30:00Z,30.2583,-88.2131,0.0,8.71,0.829,-9999.0,'1111122,1111122,1111122' 
DISL,ioos:station:DISL:KATA:1,2011-04-17T09:00:00Z,30.2583,-88.2131,0.0,9.68,2.604,-9999.0,'1111122,1111122,1111122' 
DISL,ioos:station:DISL:KATA:1,2011-04-17T09:30:00Z,30.2583,-88.2131,0.0,9.72,4.036,-9999.0,'1111122,1111122,1111122' 
DISL,ioos:station:DISL:KATA:1,2011-04-17T10:00:00Z,30.2583,-88.2131,0.0,8.17,13.23,-9999.0,'1111122,1111122,1111122' 
DISL,ioos:station:DISL:KATA:1,2011-04-17T10:30:00Z,30.2583,-88.2131,0.0,6.78,14.26,-9999.0,'1111122,1111122,1111122' 
DISL,ioos:station:DISL:KATA:1,2011-04-17T11:00:00Z,30.2583,-88.2131,0.0,5.54,18.82,-9999.0,'1111122,1111122,1111122' 
DISL,ioos:station:DISL:KATA:1,2011-04-17T11:30:00Z,30.2583,-88.2131,0.0,7.75,17.39,-9999.0,'1111122,1111122,1111122' 
DISL,ioos:station:DISL:KATA:1,2011-04-17T12:00:00Z,30.2583,-88.2131,0.0,10.39,24.88,-9999.0,'1111122,1111122,1111122' 
DISL,ioos:station:DISL:KATA:1,2011-04-17T12:30:00Z,30.2583,-88.2131,0.0,11.12,31.33,-9999.0,'1111122,1111122,1111122' 
DISL,ioos:station:DISL:KATA:1,2011-04-17T13:00:00Z,30.2583,-88.2131,0.0,10.61,41.26,-9999.0,'1111122,1111122,1111122' 
DISL,ioos:station:DISL:KATA:1,2011-04-17T13:30:00Z,30.2583,-88.2131,0.0,11.48,38.15,-9999.0,'1111122,1111122,1111122' 
DISL,ioos:station:DISL:KATA:1,2011-04-17T14:00:00Z,30.2583,-88.2131,0.0,9.19,44.28,-9999.0,'1111122,1111122,1111122' 
DISL,ioos:station:DISL:KATA:1,2011-04-17T14:30:00Z,30.2583,-88.2131,0.0,9.02,40.87,-9999.0,'1111122,1111122,1111122' 
DISL,ioos:station:DISL:KATA:1,2011-04-17T15:00:00Z,30.2583,-88.2131,0.0,7.81,46.12,-9999.0,'1111122,1111122,1111122' 
DISL,ioos:station:DISL:KATA:1,2011-04-17T15:30:00Z,30.2583,-88.2131,0.0,7.26,45.18,-9999.0,'1111122,1111122,1111122' 
DISL,ioos:station:DISL:KATA:1,2011-04-17T16:00:00Z,30.2583,-88.2131,0.0,6.35,52.81,-9999.0,'1111122,1111122,1111122' 
DISL,ioos:station:DISL:KATA:1,2011-04-17T16:30:00Z,30.2583,-88.2131,0.0,4.62,47.48,-9999.0,'1111122,1111122,1111122' 
DISL,ioos:station:DISL:KATA:1,2011-04-17T17:00:00Z,30.2583,-88.2131,0.0,3.63,47.86,-9999.0,'1111122,1111122,1111122' 
DISL,ioos:station:DISL:KATA:1,2011-04-17T17:30:00Z,30.2583,-88.2131,0.0,2.32,67.0,-9999.0,'1111122,1111122,1111122' 
DISL,ioos:station:DISL:KATA:1,2011-04-17T18:00:00Z,30.2583,-88.2131,0.0,1.23,75.93,-9999.0,'1111122,1111122,1111122' 
DISL,ioos:station:DISL:KATA:1,2011-04-17T18:30:00Z,30.2583,-88.2131,0.0,2.75,145.4,-9999.0,'1111122,1111122,1111122' 
DISL,ioos:station:DISL:KATA:1,2011-04-17T19:00:00Z,30.2583,-88.2131,0.0,2.85,170.8,-9999.0,'1111122,1111122,1111122' 
DISL,ioos:station:DISL:KATA:1,2011-04-17T19:30:00Z,30.2583,-88.2131,0.0,3.28,166.4,-9999.0,'1111122,1111122,1111122' 
DISL,ioos:station:DISL:KATA:1,2011-04-17T20:00:00Z,30.2583,-88.2131,0.0,3.78,156.9,-9999.0,'1111122,1111122,1111122' 
DISL,ioos:station:DISL:KATA:1,2011-04-17T20:30:00Z,30.2583,-88.2131,0.0,3.39,149.9,-9999.0,'1111122,1111122,1111122' 
DISL,ioos:station:DISL:KATA:1,2011-04-17T21:00:00Z,30.2583,-88.2131,0.0,4.06,144.7,-9999.0,'1111122,1111122,1111122' 
DISL,ioos:station:DISL:KATA:1,2011-04-17T21:30:00Z,30.2583,-88.2131,0.0,4.17,137.1,-9999.0,'1111122,1111122,1111122' 
DISL,ioos:station:DISL:KATA:1,2011-04-17T22:00:00Z,30.2583,-88.2131,0.0,4.29,144.0,-9999.0,'1111122,1111122,1111122' 
DISL,ioos:station:DISL:KATA:1,2011-04-17T22:30:00Z,30.2583,-88.2131,0.0,3.88,135.1,-9999.0,'1111122,1111122,1111122' 
DISL,ioos:station:DISL:KATA:1,2011-04-17T23:00:00Z,30.2583,-88.2131,0.0,3.59,141.1,-9999.0,'1111122,1111122,1111122' 
DISL,ioos:station:DISL:KATA:1,2011-04-17T23:30:00Z,30.2583,-88.2131,0.0,3.56,158.3,-9999.0,'1111122,1111122,1111122' 
DISL,ioos:station:DISL:KATA:1,2011-04-18T00:00:00Z,30.2583,-88.2131,0.0,3.77,152.6,-9999.0,'1111122,1111122,1111122' 
DISL,ioos:station:DISL:KATA:1,2011-04-18T00:30:00Z,30.2583,-88.2131,0.0,3.65,161.2,-9999.0,'1111122,1111122,1111122' 
DISL,ioos:station:DISL:KATA:1,2011-04-18T01:00:00Z,30.2583,-88.2131,0.0,3.69,165.6,-9999.0,'1111122,1111122,1111122' 
DISL,ioos:station:DISL:KATA:1,2011-04-18T01:30:00Z,30.2583,-88.2131,0.0,4.18,158.9,-9999.0,'1111122,1111122,1111122' 
DISL,ioos:station:DISL:KATA:1,2011-04-18T02:00:00Z,30.2583,-88.2131,0.0,3.95,160.0,-9999.0,'1111122,1111122,1111122' 
DISL,ioos:station:DISL:KATA:1,2011-04-18T02:30:00Z,30.2583,-88.2131,0.0,4.48,163.9,-9999.0,'1111122,1111122,1111122' 
DISL,ioos:station:DISL:KATA:1,2011-04-18T03:00:00Z,30.2583,-88.2131,0.0,4.15,173.2,-9999.0,'1111122,1111122,1111122' 
DISL,ioos:station:DISL:KATA:1,2011-04-18T03:30:00Z,30.2583,-88.2131,0.0,4.41,150.3,-9999.0,'1111122,1111122,1111122' 
DISL,ioos:station:DISL:KATA:1,2011-04-18T04:00:00Z,30.2583,-88.2131,0.0,5.02,148.5,-9999.0,'1111122,1111122,1111122' 
DISL,ioos:station:DISL:KATA:1,2011-04-18T04:30:00Z,30.2583,-88.2131,0.0,5.41,149.3,-9999.0,'1111122,1111122,1111122' 
DISL,ioos:station:DISL:KATA:1,2011-04-18T05:00:00Z,30.2583,-88.2131,0.0,5.86,157.0,-9999.0,'1111122,1111122,1111122' 
DISL,ioos:station:DISL:KATA:1,2011-04-18T05:30:00Z,30.2583,-88.2131,0.0,5.62,158.7,-9999.0,'1111122,1111122,1111122' 
DISL,ioos:station:DISL:KATA:1,2011-04-18T06:00:00Z,30.2583,-88.2131,0.0,5.37,162.5,-9999.0,'1111122,1111122,1111122' 
DISL,ioos:station:DISL:KATA:1,2011-04-18T06:30:00Z,30.2583,-88.2131,0.0,5.16,155.7,-9999.0,'1111122,1111122,1111122' 
DISL,ioos:station:DISL:KATA:1,2011-04-18T07:00:00Z,30.2583,-88.2131,0.0,5.31,163.9,-9999.0,'1111122,1111122,1111122' 
DISL,ioos:station:DISL:KATA:1,2011-04-18T07:30:00Z,30.2583,-88.2131,0.0,5.66,155.4,-9999.0,'1111122,1111122,1111122' 
DISL,ioos:station:DISL:KATA:1,2011-04-18T08:00:00Z,30.2583,-88.2131,0.0,5.88,145.9,-9999.0,'1111122,1111122,1111122' 
DISL,ioos:station:DISL:KATA:1,2011-04-18T08:30:00Z,30.2583,-88.2131,0.0,6.26,140.2,-9999.0,'1111122,1111122,1111122' 
DISL,ioos:station:DISL:KATA:1,2011-04-18T09:00:00Z,30.2583,-88.2131,0.0,6.04,141.5,-9999.0,'1111122,1111122,1111122' 
DISL,ioos:station:DISL:KATA:1,2011-04-18T09:30:00Z,30.2583,-88.2131,0.0,5.9,144.5,-9999.0,'1111122,1111122,1111122' 
DISL,ioos:station:DISL:KATA:1,2011-04-18T10:00:00Z,30.2583,-88.2131,0.0,4.94,148.0,-9999.0,'1111122,1111122,1111122' 
DISL,ioos:station:DISL:KATA:1,2011-04-18T10:30:00Z,30.2583,-88.2131,0.0,5.28,148.8,-9999.0,'1111122,1111122,1111122' 
DISL,ioos:station:DISL:KATA:1,2011-04-18T11:00:00Z,30.2583,-88.2131,0.0,5.41,152.2,-9999.0,'1111122,1111122,1111122' 
DISL,ioos:station:DISL:KATA:1,2011-04-18T11:30:00Z,30.2583,-88.2131,0.0,5.28,141.6,-9999.0,'1111122,1111122,1111122' 
DISL,ioos:station:DISL:KATA:1,2011-04-18T12:00:00Z,30.2583,-88.2131,0.0,6.13,138.0,-9999.0,'1111122,1111122,1111122' 
DISL,ioos:station:DISL:KATA:1,2011-04-18T12:30:00Z,30.2583,-88.2131,0.0,5.45,142.1,-9999.0,'1111122,1111122,1111122' 
DISL,ioos:station:DISL:KATA:1,2011-04-18T13:00:00Z,30.2583,-88.2131,0.0,5.76,136.2,-9999.0,'1111122,1111122,1111122' 
DISL,ioos:station:DISL:KATA:1,2011-04-18T13:30:00Z,30.2583,-88.2131,0.0,5.91,132.9,-9999.0,'1111122,1111122,1111122' 
DISL,ioos:station:DISL:KATA:1,2011-04-18T14:00:00Z,30.2583,-88.2131,0.0,6.21,134.5,-9999.0,'1111122,1111122,1111122' 
DISL,ioos:station:DISL:KATA:1,2011-04-18T14:30:00Z,30.2583,-88.2131,0.0,6.19,130.8,-9999.0,'1111122,1111122,1111122' 
DISL,ioos:station:DISL:KATA:1,2011-04-18T15:00:00Z,30.2583,-88.2131,0.0,7.31,125.0,-9999.0,'1111122,1111122,1111122' 
DISL,ioos:station:DISL:KATA:1,2011-04-18T15:30:00Z,30.2583,-88.2131,0.0,7.87,122.2,-9999.0,'1111122,1111122,1111122' 
DISL,ioos:station:DISL:KATA:1,2011-04-18T16:00:00Z,30.2583,-88.2131,0.0,7.92,125.9,-9999.0,'1111122,1111122,1111122' 
DISL,ioos:station:DISL:KATA:1,2011-04-18T16:30:00Z,30.2583,-88.2131,0.0,6.93,126.8,-9999.0,'1111122,1111122,1111122' 
DISL,ioos:station:DISL:KATA:1,2011-04-18T17:00:00Z,30.2583,-88.2131,0.0,6.39,120.9,-9999.0,'1111122,1111122,1111122' 
DISL,ioos:station:DISL:KATA:1,2011-04-18T17:30:00Z,30.2583,-88.2131,0.0,5.69,123.9,-9999.0,'1111122,1111122,1111122' 
DISL,ioos:station:DISL:KATA:1,2011-04-18T18:00:00Z,30.2583,-88.2131,0.0,5.1,136.7,-9999.0,'1111122,1111122,1111122' 
DISL,ioos:station:DISL:KATA:1,2011-04-18T18:30:00Z,30.2583,-88.2131,0.0,5.33,137.5,-9999.0,'1111122,1111122,1111122' 
DISL,ioos:station:DISL:KATA:1,2011-04-18T19:00:00Z,30.2583,-88.2131,0.0,5.29,138.3,-9999.0,'1111122,1111122,1111122' 
DISL,ioos:station:DISL:KATA:1,2011-04-18T19:30:00Z,30.2583,-88.2131,0.0,4.43,136.5,-9999.0,'1111122,1111122,1111122' 
DISL,ioos:station:DISL:KATA:1,2011-04-18T20:00:00Z,30.2583,-88.2131,0.0,4.98,138.7,-9999.0,'1111122,1111122,1111122' 
DISL,ioos:station:DISL:KATA:1,2011-04-18T20:30:00Z,30.2583,-88.2131,0.0,4.51,130.0,-9999.0,'1111122,1111122,1111122' 
DISL,ioos:station:DISL:KATA:1,2011-04-18T21:00:00Z,30.2583,-88.2131,0.0,5.39,126.4,-9999.0,'1111122,1111122,1111122' 
DISL,ioos:station:DISL:KATA:1,2011-04-18T21:30:00Z,30.2583,-88.2131,0.0,5.71,121.6,-9999.0,'1111122,1111122,1111122' 
DISL,ioos:station:DISL:KATA:1,2011-04-18T22:00:00Z,30.2583,-88.2131,0.0,5.94,121.7,-9999.0,'1111122,1111122,1111122' 
DISL,ioos:station:DISL:KATA:1,2011-04-18T22:30:00Z,30.2583,-88.2131,0.0,5.53,126.0,-9999.0,'1111122,1111122,1111122' 
DISL,ioos:station:DISL:KATA:1,2011-04-18T23:00:00Z,30.2583,-88.2131,0.0,6.3,119.1,-9999.0,'1111122,1111122,1111122' 
DISL,ioos:station:DISL:KATA:1,2011-04-18T23:30:00Z,30.2583,-88.2131,0.0,5.9,118.1,-9999.0,'1111122,1111122,1111122' 
DISL,ioos:station:DISL:KATA:1,2011-04-19T00:00:00Z,30.2583,-88.2131,0.0,6.2,110.8,-9999.0,'1111122,1111122,1111122' 
DISL,ioos:station:DISL:KATA:1,2011-04-19T00:30:00Z,30.2583,-88.2131,0.0,6.37,109.5,-9999.0,'1111122,1111122,1111122' 
DISL,ioos:station:DISL:KATA:1,2011-04-19T01:00:00Z,30.2583,-88.2131,0.0,6.64,110.0,-9999.0,'1111122,1111122,1111122' 
DISL,ioos:station:DISL:KATA:1,2011-04-19T01:30:00Z,30.2583,-88.2131,0.0,6.33,111.6,-9999.0,'1111122,1111122,1111122' 
DISL,ioos:station:DISL:KATA:1,2011-04-19T02:00:00Z,30.2583,-88.2131,0.0,7.15,115.6,-9999.0,'1111122,1111122,1111122' 
DISL,ioos:station:DISL:KATA:1,2011-04-19T02:30:00Z,30.2583,-88.2131,0.0,6.78,116.4,-9999.0,'1111122,1111122,1111122' 
DISL,ioos:station:DISL:KATA:1,2011-04-19T03:00:00Z,30.2583,-88.2131,0.0,6.88,117.9,-9999.0,'1111122,1111122,1111122' 
DISL,ioos:station:DISL:KATA:1,2011-04-19T03:30:00Z,30.2583,-88.2131,0.0,7.33,121.5,-9999.0,'1111122,1111122,1111122' 
DISL,ioos:station:DISL:KATA:1,2011-04-19T04:00:00Z,30.2583,-88.2131,0.0,7.56,122.1,-9999.0,'1111122,1111122,1111122' 
DISL,ioos:station:DISL:KATA:1,2011-04-19T04:30:00Z,30.2583,-88.2131,0.0,7.52,123.1,-9999.0,'1111122,1111122,1111122' 
DISL,ioos:station:DISL:KATA:1,2011-04-19T05:00:00Z,30.2583,-88.2131,0.0,7.68,123.7,-9999.0,'1111122,1111122,1111122' 
DISL,ioos:station:DISL:KATA:1,2011-04-19T05:30:00Z,30.2583,-88.2131,0.0,7.76,127.0,-9999.0,'1111122,1111122,1111122' 
DISL,ioos:station:DISL:KATA:1,2011-04-19T06:00:00Z,30.2583,-88.2131,0.0,7.51,128.4,-9999.0,'1111122,1111122,1111122' 
DISL,ioos:station:DISL:KATA:1,2011-04-19T06:30:00Z,30.2583,-88.2131,0.0,7.08,129.3,-9999.0,'1111122,1111122,1111122' 
DISL,ioos:station:DISL:KATA:1,2011-04-19T07:00:00Z,30.2583,-88.2131,0.0,7.34,130.5,-9999.0,'1111122,1111122,1111122' 
DISL,ioos:station:DISL:KATA:1,2011-04-19T07:30:00Z,30.2583,-88.2131,0.0,7.07,132.9,-9999.0,'1111122,1111122,1111122' 
DISL,ioos:station:DISL:KATA:1,2011-04-19T08:00:00Z,30.2583,-88.2131,0.0,6.85,132.4,-9999.0,'1111122,1111122,1111122' 
DISL,ioos:station:DISL:KATA:1,2011-04-19T08:30:00Z,30.2583,-88.2131,0.0,6.99,132.1,-9999.0,'1111122,1111122,1111122' 
DISL,ioos:station:DISL:KATA:1,2011-04-19T09:00:00Z,30.2583,-88.2131,0.0,6.84,132.2,-9999.0,'1111122,1111122,1111122' 
DISL,ioos:station:DISL:KATA:1,2011-04-19T09:30:00Z,30.2583,-88.2131,0.0,6.66,132.1,-9999.0,'1111122,1111122,1111122' 
DISL,ioos:station:DISL:KATA:1,2011-04-19T10:00:00Z,30.2583,-88.2131,0.0,6.37,132.2,-9999.0,'1111122,1111122,1111122' 
DISL,ioos:station:DISL:KATA:1,2011-04-19T10:30:00Z,30.2583,-88.2131,0.0,6.22,135.1,-9999.0,'1111122,1111122,1111122' 
DISL,ioos:station:DISL:KATA:1,2011-04-19T11:00:00Z,30.2583,-88.2131,0.0,5.93,137.1,-9999.0,'1111122,1111122,1111122' 
DISL,ioos:station:DISL:KATA:1,2011-04-19T11:30:00Z,30.2583,-88.2131,0.0,6.19,128.4,-9999.0,'1111122,1111122,1111122' 
DISL,ioos:station:DISL:KATA:1,2011-04-19T12:00:00Z,30.2583,-88.2131,0.0,5.85,136.5,-9999.0,'1111122,1111122,1111122' 
DISL,ioos:station:DISL:KATA:1,2011-04-19T12:30:00Z,30.2583,-88.2131,0.0,5.75,132.3,-9999.0,'1111122,1111122,1111122' 
DISL,ioos:station:DISL:KATA:1,2011-04-19T13:00:00Z,30.2583,-88.2131,0.0,5.92,135.2,-9999.0,'1111122,1111122,1111122' 
DISL,ioos:station:DISL:KATA:1,2011-04-19T13:30:00Z,30.2583,-88.2131,0.0,5.4,131.3,-9999.0,'1111122,1111122,1111122' 
DISL,ioos:station:DISL:KATA:1,2011-04-19T14:00:00Z,30.2583,-88.2131,0.0,5.55,126.0,-9999.0,'1111122,1111122,1111122' 
DISL,ioos:station:DISL:KATA:1,2011-04-19T14:30:00Z,30.2583,-88.2131,0.0,6.03,127.3,-9999.0,'1111122,1111122,1111122' 
DISL,ioos:station:DISL:KATA:1,2011-04-19T15:00:00Z,30.2583,-88.2131,0.0,5.62,130.6,-9999.0,'1111122,1111122,1111122' 
DISL,ioos:station:DISL:KATA:1,2011-04-19T15:30:00Z,30.2583,-88.2131,0.0,5.92,125.3,-9999.0,'1111122,1111122,1111122' 
DISL,ioos:station:DISL:KATA:1,2011-04-19T16:00:00Z,30.2583,-88.2131,0.0,5.84,124.5,-9999.0,'1111122,1111122,1111122' 
DISL,ioos:station:DISL:KATA:1,2011-04-19T16:30:00Z,30.2583,-88.2131,0.0,6.02,128.6,-9999.0,'1111122,1111122,1111122' 
DISL,ioos:station:DISL:KATA:1,2011-04-19T17:00:00Z,30.2583,-88.2131,0.0,6.66,127.4,-9999.0,'1111122,1111122,1111122' 
DISL,ioos:station:DISL:KATA:1,2011-04-19T17:30:00Z,30.2583,-88.2131,0.0,7.12,127.2,-9999.0,'1111122,1111122,1111122' 
DISL,ioos:station:DISL:KATA:1,2011-04-19T18:00:00Z,30.2583,-88.2131,0.0,6.8,127.8,-9999.0,'1111122,1111122,1111122' 
DISL,ioos:station:DISL:KATA:1,2011-04-19T18:30:00Z,30.2583,-88.2131,0.0,6.9,123.3,-9999.0,'1111122,1111122,1111122' 
DISL,ioos:station:DISL:KATA:1,2011-04-19T19:00:00Z,30.2583,-88.2131,0.0,7.18,123.1,-9999.0,'1111122,1111122,1111122' 
DISL,ioos:station:DISL:KATA:1,2011-04-19T19:30:00Z,30.2583,-88.2131,0.0,7.21,119.8,-9999.0,'1111122,1111122,1111122' 
DISL,ioos:station:DISL:KATA:1,2011-04-19T20:00:00Z,30.2583,-88.2131,0.0,7.22,121.3,-9999.0,'1111122,1111122,1111122' 
DISL,ioos:station:DISL:KATA:1,2011-04-19T20:30:00Z,30.2583,-88.2131,0.0,7.11,118.2,-9999.0,'1111122,1111122,1111122' 
DISL,ioos:station:DISL:KATA:1,2011-04-19T21:00:00Z,30.2583,-88.2131,0.0,7.07,118.1,-9999.0,'1111122,1111122,1111122' 
DISL,ioos:station:DISL:KATA:1,2011-04-19T21:30:00Z,30.2583,-88.2131,0.0,7.37,117.5,-9999.0,'1111122,1111122,1111122' 
DISL,ioos:station:DISL:KATA:1,2011-04-19T22:00:00Z,30.2583,-88.2131,0.0,7.19,113.5,-9999.0,'1111122,1111122,1111122' 
DISL,ioos:station:DISL:KATA:1,2011-04-19T22:30:00Z,30.2583,-88.2131,0.0,7.85,115.5,-9999.0,'1111122,1111122,1111122' 
DISL,ioos:station:DISL:KATA:1,2011-04-19T23:00:00Z,30.2583,-88.2131,0.0,7.86,117.0,-9999.0,'1111122,1111122,1111122' 